Carnival Valor — H3VR — position and weather

sailwx.info

Track history (hours):
 
Tides and Currents Weather Stations Pressure Air Temp Water Temp Dewpoint Dewpoint Depression Visibility Wind Speed Wind Dir Waves Ship Positions

Carnival Valor

Last reported at 2018-May-20 02:03 UTC. Time now 2018-May-20 21:12 UTC.
Position N 28°41' W 093°39'.

Type: Ship. MMSI: 354298000.

Date/timePositionNaut miles runAvg speedWind from/ knotsBaromVisibWave heightAir tempDewpointWater temp
2018-May-20 02:03N 28°41' W 093°39'2417.1
2018-May-20 00:39N 28°55' W 094°01'415.2
2018-May-20 00:23N 28°57' W 094°05'2915.0
2018-May-19 22:26N 29°14' W 094°33'613.9
2018-May-19 22:00N 29°18' W 094°37'613.0
2018-May-19 21:31N 29°21' W 094°44'4 6.8
2018-May-19 20:54N 29°19' W 094°48'0 0.0
2018-May-19 20:18N 29°19' W 094°48'0 0.0
2018-May-19 19:24N 29°19' W 094°48'0 0.0
2018-May-19 19:00N 29°19' W 094°48'0 0.0
2018-May-19 17:35N 29°19' W 094°48'0 0.0
2018-May-19 17:29N 29°19' W 094°48'0 0.0
2018-May-19 16:59N 29°19' W 094°48'0 0.0
2018-May-19 16:28N 29°19' W 094°48'0 0.0
2018-May-19 15:55N 29°19' W 094°48'0 0.0
2018-May-19 15:28N 29°19' W 094°48'0 0.0
2018-May-19 14:58N 29°19' W 094°48'0 0.0
2018-May-19 14:28N 29°19' W 094°48'0 0.0
2018-May-19 14:00N 29°19' W 094°48'0 0.0
2018-May-19 13:30N 29°19' W 094°48'0 0.0
2018-May-19 13:00N 29°19' W 094°48'0 0.0
2018-May-19 12:31N 29°19' W 094°48'1 2.4
2018-May-19 12:01N 29°19' W 094°47'510.0
2018-May-19 11:30N 29°20' W 094°41'713.9
2018-May-19 11:00N 29°17' W 094°34'712.6
2018-May-19 10:29N 29°13' W 094°28'1612.4
2018-May-19 09:13N 28°57' W 094°25'513.4
2018-May-19 08:51N 28°53' W 094°25'1113.4
2018-May-19 08:01N 28°41' W 094°25'013.1
2018-May-19 07:59N 28°41' W 094°25'713.3
2018-May-19 07:28N 28°34' W 094°25'46915.7
2018-May-18 01:36N 21°52' W 089°59'216.0
2018-May-18 01:28N 21°50' W 089°58'715.7
2018-May-18 01:01N 21°44' W 089°53'815.6
2018-May-18 00:31N 21°37' W 089°49'815.4
2018-May-18 00:01N 21°31' W 089°44'612.9
2018-May-17 23:30N 21°25' W 089°41'5 9.3
2018-May-17 23:00N 21°21' W 089°41'0 0.0
2018-May-17 22:30N 21°21' W 089°41'0 0.0
2018-May-17 22:00N 21°21' W 089°41'0 0.0
2018-May-17 21:30N 21°21' W 089°41'0 0.0
2018-May-17 20:56N 21°21' W 089°41'0 0.0
2018-May-17 20:29N 21°21' W 089°41'0 0.0
2018-May-17 19:59N 21°21' W 089°41'0 0.0
2018-May-17 19:29N 21°21' W 089°41'0 0.0
2018-May-17 18:58N 21°21' W 089°41'0 0.0
2018-May-17 18:28N 21°21' W 089°41'0 0.0
2018-May-17 17:58N 21°21' W 089°41'0 0.0
2018-May-17 17:28N 21°21' W 089°41'0 0.0
2018-May-17 16:58N 21°21' W 089°41'0 0.0
2018-May-17 16:30N 21°21' W 089°41'0 0.0
2018-May-17 16:00N 21°21' W 089°41'0 0.0
2018-May-17 15:27N 21°21' W 089°41'0 0.0
2018-May-17 15:00N 21°21' W 089°41'0 0.2
2018-May-17 14:30N 21°21' W 089°41'3 7.0
2018-May-17 14:00N 21°24' W 089°41'611.7
2018-May-17 13:30N 21°29' W 089°39'917.9
2018-May-17 13:01N 21°37' W 089°34'918.2
2018-May-17 12:31N 21°43' W 089°26'1019.1
2018-May-17 12:00N 21°45' W 089°16'14711.9
2018-May-16 23:44N 20°35' W 086°58'415.9
2018-May-16 23:30N 20°32' W 087°00'4 7.7
2018-May-16 23:00N 20°29' W 086°59'0 0.0
2018-May-16 22:30N 20°29' W 086°59'0 0.0
2018-May-16 22:00N 20°29' W 086°59'0 0.0
2018-May-16 21:29N 20°29' W 086°59'0 0.0
2018-May-16 20:59N 20°29' W 086°59'0 0.0
2018-May-16 20:29N 20°29' W 086°59'0 0.0
2018-May-16 20:00N 20°29' W 086°59'0 0.0
2018-May-16 19:25N 20°29' W 086°59'0 0.0
2018-May-16 18:58N 20°29' W 086°59'0 0.0
2018-May-16 18:28N 20°29' W 086°59'0 0.0
2018-May-16 17:58N 20°29' W 086°59'0 0.0
2018-May-16 17:28N 20°29' W 086°59'0 0.0
2018-May-16 17:00N 20°29' W 086°59'0 0.0
2018-May-16 16:30N 20°29' W 086°59'0 0.0
2018-May-16 16:00N 20°29' W 086°59'0 0.0
2018-May-16 15:30N 20°29' W 086°59'0 0.0
2018-May-16 15:00N 20°29' W 086°59'0 0.0
2018-May-16 14:29N 20°29' W 086°59'0 0.0
2018-May-16 14:00N 20°29' W 086°59'1 1.5
2018-May-16 13:30N 20°29' W 086°59'612.0
2018-May-16 13:00N 20°35' W 086°58'11815.9
2018-May-16 05:32N 22°30' W 087°30'119.8
2018-May-16 05:29N 22°31' W 087°30'38518.5
2018-May-15 08:39N 27°22' W 092°09'318.0
2018-May-15 08:29N 27°24' W 092°11'918.0
2018-May-15 08:00N 27°31' W 092°16'918.2
2018-May-15 07:30N 27°39' W 092°23'1019.9
2018-May-15 07:00N 27°46' W 092°30'918.4
2018-May-15 06:30N 27°54' W 092°36'918.1
2018-May-15 06:00N 28°01' W 092°42'918.3
2018-May-15 05:30N 28°08' W 092°48'917.9
2018-May-15 05:00N 28°14' W 092°56'917.8
2018-May-15 04:30N 28°19' W 093°04'918.0
2018-May-15 04:00N 28°25' W 093°12'917.8
2018-May-15 03:30N 28°30' W 093°20'918.1
2018-May-15 03:00N 28°35' W 093°29'917.8
2018-May-15 02:30N 28°40' W 093°37'917.3
2018-May-15 02:00N 28°45' W 093°46'817.1
2018-May-15 01:30N 28°50' W 093°53'917.8
2018-May-15 01:00N 28°56' W 094°01'917.3
2018-May-15 00:30N 29°00' W 094°09'815.7
2018-May-15 00:00N 29°05' W 094°17'815.3
2018-May-14 23:30N 29°08' W 094°25'815.3
2018-May-14 23:00N 29°13' W 094°32'714.2
2018-May-14 22:30N 29°18' W 094°38'611.4
2018-May-14 22:00N 29°21' W 094°43'4 7.2
2018-May-14 21:30N 29°19' W 094°47'1 1.9
2018-May-14 20:59N 29°19' W 094°48'0 0.0
2018-May-14 20:28N 29°19' W 094°48'0 0.0
2018-May-14 19:58N 29°19' W 094°48'0 0.0
2018-May-14 19:28N 29°19' W 094°48'0 0.0
2018-May-14 18:58N 29°19' W 094°48'0 0.0
2018-May-14 18:31N 29°19' W 094°48'0 0.0
2018-May-14 18:00N 29°19' W 094°48'0 0.0
2018-May-14 17:30N 29°19' W 094°48'0 0.0
2018-May-14 17:00N 29°19' W 094°48'0 0.0
2018-May-14 16:30N 29°19' W 094°48'0 0.0
2018-May-14 15:59N 29°19' W 094°48'0 0.0
2018-May-14 15:29N 29°19' W 094°48'0 0.0
2018-May-14 14:59N 29°19' W 094°48'0 0.0
2018-May-14 14:29N 29°19' W 094°48'0 0.0
2018-May-14 13:59N 29°19' W 094°48'0 0.0
2018-May-14 13:28N 29°19' W 094°48'0 0.0
2018-May-14 12:59N 29°19' W 094°48'2 3.6
2018-May-14 12:30N 29°20' W 094°47'813.9
2018-May-14 11:55N 29°18' W 094°37'615.4
2018-May-14 11:30N 29°15' W 094°32'1018.8
2018-May-14 10:59N 29°09' W 094°22'918.3
2018-May-14 10:30N 29°04' W 094°14'1019.6
2018-May-14 10:00N 28°59' W 094°05'1019.9
2018-May-14 09:30N 28°53' W 093°55'1020.1
2018-May-14 09:00N 28°47' W 093°46'1020.2
2018-May-14 08:30N 28°41' W 093°37'1020.5
2018-May-14 08:00N 28°35' W 093°27'1020.7
2018-May-14 07:30N 28°29' W 093°18'917.8
2018-May-14 07:00N 28°24' W 093°09'918.9
2018-May-14 06:30N 28°18' W 093°01'1118.8
2018-May-14 05:56N 28°11' W 092°51'818.7
2018-May-14 05:30N 28°05' W 092°46'1119.7
2018-May-14 04:56N 27°56' W 092°38'54018.6
2018-May-12 23:55N 20°34' W 086°59'511.5
2018-May-12 23:30N 20°29' W 086°59'0 0.7
2018-May-12 23:00N 20°29' W 086°59'0 0.0
2018-May-12 22:30N 20°29' W 086°59'0 0.0
2018-May-12 22:00N 20°29' W 086°59'0 0.0
2018-May-12 21:29N 20°29' W 086°59'0 0.0
2018-May-12 20:59N 20°29' W 086°59'0 0.0
2018-May-12 20:29N 20°29' W 086°59'0 0.0
2018-May-12 19:59N 20°29' W 086°59'0 0.0
2018-May-12 19:29N 20°29' W 086°59'0 0.0
2018-May-12 18:59N 20°29' W 086°59'0 0.0
2018-May-12 18:28N 20°29' W 086°59'0 0.0
2018-May-12 17:58N 20°29' W 086°59'0 0.0
2018-May-12 17:28N 20°29' W 086°59'0 0.0
2018-May-12 16:58N 20°29' W 086°59'0 0.0
2018-May-12 16:27N 20°29' W 086°59'0 0.0
2018-May-12 15:57N 20°29' W 086°59'0 0.0
2018-May-12 15:30N 20°29' W 086°59'0 0.0
2018-May-12 15:00N 20°29' W 086°59'0 0.0
2018-May-12 14:30N 20°29' W 086°59'0 0.0
2018-May-12 14:00N 20°29' W 086°59'1 2.7
2018-May-12 13:30N 20°30' W 086°59'611.4
2018-May-12 13:00N 20°35' W 086°58'57617.7
2018-May-11 04:33N 28°22' W 093°08'218.2
2018-May-11 04:26N 28°24' W 093°10'918.2
2018-May-11 03:56N 28°29' W 093°19'818.0
2018-May-11 03:30N 28°33' W 093°26'917.5
2018-May-11 02:59N 28°38' W 093°35'2317.2
2018-May-11 01:40N 28°52' W 093°55'417.5
2018-May-11 01:27N 28°54' W 093°59'917.4
2018-May-11 00:57N 28°59' W 094°07'716.2
2018-May-11 00:31N 29°03' W 094°14'815.3
2018-May-11 00:00N 29°07' W 094°21'815.6
2018-May-10 23:30N 29°11' W 094°29'815.3
2018-May-10 23:00N 29°16' W 094°35'612.2
2018-May-10 22:31N 29°20' W 094°41'510.9
2018-May-10 22:00N 29°19' W 094°47'1 1.8
2018-May-10 21:26N 29°19' W 094°48'0 0.0
2018-May-10 20:59N 29°19' W 094°48'0 0.0
2018-May-10 20:26N 29°19' W 094°48'0 0.0
2018-May-10 20:00N 29°19' W 094°48'0 0.0
2018-May-10 19:30N 29°19' W 094°48'0 0.0
2018-May-10 18:57N 29°19' W 094°48'0 0.0
2018-May-10 18:29N 29°19' W 094°48'0 0.0
2018-May-10 17:59N 29°19' W 094°48'0 0.0
2018-May-10 17:29N 29°19' W 094°48'0 0.0
2018-May-10 16:59N 29°19' W 094°48'0 0.0
2018-May-10 16:07N 29°19' W 094°48'0 0.0
2018-May-10 15:55N 29°19' W 094°48'0 0.0
2018-May-10 15:25N 29°19' W 094°48'0 0.0
2018-May-10 14:10N 29°19' W 094°48'0 0.0
2018-May-10 13:48N 29°19' W 094°48'0 0.0
2018-May-10 13:30N 29°19' W 094°48'0 0.0
2018-May-10 13:00N 29°19' W 094°48'0 0.0
2018-May-10 12:30N 29°19' W 094°48'1 2.1
2018-May-10 12:00N 29°19' W 094°47'5 9.9
2018-May-10 11:30N 29°20' W 094°41'713.9
2018-May-10 11:00N 29°17' W 094°34'612.4
2018-May-10 10:30N 29°13' W 094°29'510.6
2018-May-10 10:00N 29°09' W 094°25'510.7
2018-May-10 09:30N 29°04' W 094°25'510.5
2018-May-10 09:01N 28°59' W 094°26'4 8.6
2018-May-10 08:30N 28°54' W 094°26'4 8.8
2018-May-10 08:00N 28°50' W 094°24'611.4
2018-May-10 07:31N 28°45' W 094°24'816.4
2018-May-10 07:01N 28°36' W 094°24'816.5
2018-May-10 06:30N 28°28' W 094°24'816.7
2018-May-10 06:01N 28°20' W 094°24'816.6
2018-May-10 05:31N 28°11' W 094°25'916.5
2018-May-10 04:59N 28°03' W 094°25'816.5
2018-May-10 04:31N 27°55' W 094°25'816.6
2018-May-10 04:00N 27°47' W 094°25'815.9
2018-May-10 03:30N 27°39' W 094°21'  
Track history (hours):
 
Tides and Currents Weather Stations Pressure Air Temp Water Temp Dewpoint Dewpoint Depression Visibility Wind Speed Wind Dir Waves Ship Positions

Carnival Valor

Last reported at 2018-May-20 02:03 UTC. Time now 2018-May-20 21:12 UTC.
Position N 28°41' W 093°39'.

Type: Ship. MMSI: 354298000.

Date/timePositionNaut miles runAvg speedWind from/ knotsBaromVisibWave heightAir tempDewpointWater temp
2018-May-20 02:03N 28°41' W 093°39'2417.1
2018-May-20 00:39N 28°55' W 094°01'415.2
2018-May-20 00:23N 28°57' W 094°05'2915.0
2018-May-19 22:26N 29°14' W 094°33'613.9
2018-May-19 22:00N 29°18' W 094°37'613.0
2018-May-19 21:31N 29°21' W 094°44'4 6.8
2018-May-19 20:54N 29°19' W 094°48'0 0.0
2018-May-19 20:18N 29°19' W 094°48'0 0.0
2018-May-19 19:24N 29°19' W 094°48'0 0.0
2018-May-19 19:00N 29°19' W 094°48'0 0.0
2018-May-19 17:35N 29°19' W 094°48'0 0.0
2018-May-19 17:29N 29°19' W 094°48'0 0.0
2018-May-19 16:59N 29°19' W 094°48'0 0.0
2018-May-19 16:28N 29°19' W 094°48'0 0.0
2018-May-19 15:55N 29°19' W 094°48'0 0.0
2018-May-19 15:28N 29°19' W 094°48'0 0.0
2018-May-19 14:58N 29°19' W 094°48'0 0.0
2018-May-19 14:28N 29°19' W 094°48'0 0.0
2018-May-19 14:00N 29°19' W 094°48'0 0.0
2018-May-19 13:30N 29°19' W 094°48'0 0.0
2018-May-19 13:00N 29°19' W 094°48'0 0.0
2018-May-19 12:31N 29°19' W 094°48'1 2.4
2018-May-19 12:01N 29°19' W 094°47'510.0
2018-May-19 11:30N 29°20' W 094°41'713.9
2018-May-19 11:00N 29°17' W 094°34'712.6
2018-May-19 10:29N 29°13' W 094°28'1612.4
2018-May-19 09:13N 28°57' W 094°25'513.4
2018-May-19 08:51N 28°53' W 094°25'1113.4
2018-May-19 08:01N 28°41' W 094°25'013.1
2018-May-19 07:59N 28°41' W 094°25'713.3
2018-May-19 07:28N 28°34' W 094°25'46915.7
2018-May-18 01:36N 21°52' W 089°59'216.0
2018-May-18 01:28N 21°50' W 089°58'715.7
2018-May-18 01:01N 21°44' W 089°53'815.6
2018-May-18 00:31N 21°37' W 089°49'815.4
2018-May-18 00:01N 21°31' W 089°44'612.9
2018-May-17 23:30N 21°25' W 089°41'5 9.3
2018-May-17 23:00N 21°21' W 089°41'0 0.0
2018-May-17 22:30N 21°21' W 089°41'0 0.0
2018-May-17 22:00N 21°21' W 089°41'0 0.0
2018-May-17 21:30N 21°21' W 089°41'0 0.0
2018-May-17 20:56N 21°21' W 089°41'0 0.0
2018-May-17 20:29N 21°21' W 089°41'0 0.0
2018-May-17 19:59N 21°21' W 089°41'0 0.0
2018-May-17 19:29N 21°21' W 089°41'0 0.0
2018-May-17 18:58N 21°21' W 089°41'0 0.0
2018-May-17 18:28N 21°21' W 089°41'0 0.0
2018-May-17 17:58N 21°21' W 089°41'0 0.0
2018-May-17 17:28N 21°21' W 089°41'0 0.0
2018-May-17 16:58N 21°21' W 089°41'0 0.0
2018-May-17 16:30N 21°21' W 089°41'0 0.0
2018-May-17 16:00N 21°21' W 089°41'0 0.0
2018-May-17 15:27N 21°21' W 089°41'0 0.0
2018-May-17 15:00N 21°21' W 089°41'0 0.2
2018-May-17 14:30N 21°21' W 089°41'3 7.0
2018-May-17 14:00N 21°24' W 089°41'611.7
2018-May-17 13:30N 21°29' W 089°39'917.9
2018-May-17 13:01N 21°37' W 089°34'918.2
2018-May-17 12:31N 21°43' W 089°26'1019.1
2018-May-17 12:00N 21°45' W 089°16'14711.9
2018-May-16 23:44N 20°35' W 086°58'415.9
2018-May-16 23:30N 20°32' W 087°00'4 7.7
2018-May-16 23:00N 20°29' W 086°59'0 0.0
2018-May-16 22:30N 20°29' W 086°59'0 0.0
2018-May-16 22:00N 20°29' W 086°59'0 0.0
2018-May-16 21:29N 20°29' W 086°59'0 0.0
2018-May-16 20:59N 20°29' W 086°59'0 0.0
2018-May-16 20:29N 20°29' W 086°59'0 0.0
2018-May-16 20:00N 20°29' W 086°59'0 0.0
2018-May-16 19:25N 20°29' W 086°59'0 0.0
2018-May-16 18:58N 20°29' W 086°59'0 0.0
2018-May-16 18:28N 20°29' W 086°59'0 0.0
2018-May-16 17:58N 20°29' W 086°59'0 0.0
2018-May-16 17:28N 20°29' W 086°59'0 0.0
2018-May-16 17:00N 20°29' W 086°59'0 0.0
2018-May-16 16:30N 20°29' W 086°59'0 0.0
2018-May-16 16:00N 20°29' W 086°59'0 0.0
2018-May-16 15:30N 20°29' W 086°59'0 0.0
2018-May-16 15:00N 20°29' W 086°59'0 0.0
2018-May-16 14:29N 20°29' W 086°59'0 0.0
2018-May-16 14:00N 20°29' W 086°59'1 1.5
2018-May-16 13:30N 20°29' W 086°59'612.0
2018-May-16 13:00N 20°35' W 086°58'11815.9
2018-May-16 05:32N 22°30' W 087°30'119.8
2018-May-16 05:29N 22°31' W 087°30'38518.5
2018-May-15 08:39N 27°22' W 092°09'318.0
2018-May-15 08:29N 27°24' W 092°11'918.0
2018-May-15 08:00N 27°31' W 092°16'918.2
2018-May-15 07:30N 27°39' W 092°23'1019.9
2018-May-15 07:00N 27°46' W 092°30'918.4
2018-May-15 06:30N 27°54' W 092°36'918.1
2018-May-15 06:00N 28°01' W 092°42'918.3
2018-May-15 05:30N 28°08' W 092°48'917.9
2018-May-15 05:00N 28°14' W 092°56'917.8
2018-May-15 04:30N 28°19' W 093°04'918.0
2018-May-15 04:00N 28°25' W 093°12'917.8
2018-May-15 03:30N 28°30' W 093°20'918.1
2018-May-15 03:00N 28°35' W 093°29'917.8
2018-May-15 02:30N 28°40' W 093°37'917.3
2018-May-15 02:00N 28°45' W 093°46'817.1
2018-May-15 01:30N 28°50' W 093°53'917.8
2018-May-15 01:00N 28°56' W 094°01'917.3
2018-May-15 00:30N 29°00' W 094°09'815.7
2018-May-15 00:00N 29°05' W 094°17'815.3
2018-May-14 23:30N 29°08' W 094°25'815.3
2018-May-14 23:00N 29°13' W 094°32'714.2
2018-May-14 22:30N 29°18' W 094°38'611.4
2018-May-14 22:00N 29°21' W 094°43'4 7.2
2018-May-14 21:30N 29°19' W 094°47'1 1.9
2018-May-14 20:59N 29°19' W 094°48'0 0.0
2018-May-14 20:28N 29°19' W 094°48'0 0.0
2018-May-14 19:58N 29°19' W 094°48'0 0.0
2018-May-14 19:28N 29°19' W 094°48'0 0.0
2018-May-14 18:58N 29°19' W 094°48'0 0.0
2018-May-14 18:31N 29°19' W 094°48'0 0.0
2018-May-14 18:00N 29°19' W 094°48'0 0.0
2018-May-14 17:30N 29°19' W 094°48'0 0.0
2018-May-14 17:00N 29°19' W 094°48'0 0.0
2018-May-14 16:30N 29°19' W 094°48'0 0.0
2018-May-14 15:59N 29°19' W 094°48'0 0.0
2018-May-14 15:29N 29°19' W 094°48'0 0.0
2018-May-14 14:59N 29°19' W 094°48'0 0.0
2018-May-14 14:29N 29°19' W 094°48'0 0.0
2018-May-14 13:59N 29°19' W 094°48'0 0.0
2018-May-14 13:28N 29°19' W 094°48'0 0.0
2018-May-14 12:59N 29°19' W 094°48'2 3.6
2018-May-14 12:30N 29°20' W 094°47'813.9
2018-May-14 11:55N 29°18' W 094°37'615.4
2018-May-14 11:30N 29°15' W 094°32'1018.8
2018-May-14 10:59N 29°09' W 094°22'918.3
2018-May-14 10:30N 29°04' W 094°14'1019.6
2018-May-14 10:00N 28°59' W 094°05'1019.9
2018-May-14 09:30N 28°53' W 093°55'1020.1
2018-May-14 09:00N 28°47' W 093°46'1020.2
2018-May-14 08:30N 28°41' W 093°37'1020.5
2018-May-14 08:00N 28°35' W 093°27'1020.7
2018-May-14 07:30N 28°29' W 093°18'917.8
2018-May-14 07:00N 28°24' W 093°09'918.9
2018-May-14 06:30N 28°18' W 093°01'1118.8
2018-May-14 05:56N 28°11' W 092°51'818.7
2018-May-14 05:30N 28°05' W 092°46'1119.7
2018-May-14 04:56N 27°56' W 092°38'54018.6
2018-May-12 23:55N 20°34' W 086°59'511.5
2018-May-12 23:30N 20°29' W 086°59'0 0.7
2018-May-12 23:00N 20°29' W 086°59'0 0.0
2018-May-12 22:30N 20°29' W 086°59'0 0.0
2018-May-12 22:00N 20°29' W 086°59'0 0.0
2018-May-12 21:29N 20°29' W 086°59'0 0.0
2018-May-12 20:59N 20°29' W 086°59'0 0.0
2018-May-12 20:29N 20°29' W 086°59'0 0.0
2018-May-12 19:59N 20°29' W 086°59'0 0.0
2018-May-12 19:29N 20°29' W 086°59'0 0.0
2018-May-12 18:59N 20°29' W 086°59'0 0.0
2018-May-12 18:28N 20°29' W 086°59'0 0.0
2018-May-12 17:58N 20°29' W 086°59'0 0.0
2018-May-12 17:28N 20°29' W 086°59'0 0.0
2018-May-12 16:58N 20°29' W 086°59'0 0.0
2018-May-12 16:27N 20°29' W 086°59'0 0.0
2018-May-12 15:57N 20°29' W 086°59'0 0.0
2018-May-12 15:30N 20°29' W 086°59'0 0.0
2018-May-12 15:00N 20°29' W 086°59'0 0.0
2018-May-12 14:30N 20°29' W 086°59'0 0.0
2018-May-12 14:00N 20°29' W 086°59'1 2.7
2018-May-12 13:30N 20°30' W 086°59'611.4
2018-May-12 13:00N 20°35' W 086°58'57617.7
2018-May-11 04:33N 28°22' W 093°08'218.2
2018-May-11 04:26N 28°24' W 093°10'918.2
2018-May-11 03:56N 28°29' W 093°19'818.0
2018-May-11 03:30N 28°33' W 093°26'917.5
2018-May-11 02:59N 28°38' W 093°35'2317.2
2018-May-11 01:40N 28°52' W 093°55'417.5
2018-May-11 01:27N 28°54' W 093°59'917.4
2018-May-11 00:57N 28°59' W 094°07'716.2
2018-May-11 00:31N 29°03' W 094°14'815.3
2018-May-11 00:00N 29°07' W 094°21'815.6
2018-May-10 23:30N 29°11' W 094°29'815.3
2018-May-10 23:00N 29°16' W 094°35'612.2
2018-May-10 22:31N 29°20' W 094°41'510.9
2018-May-10 22:00N 29°19' W 094°47'1 1.8
2018-May-10 21:26N 29°19' W 094°48'0 0.0
2018-May-10 20:59N 29°19' W 094°48'0 0.0
2018-May-10 20:26N 29°19' W 094°48'0 0.0
2018-May-10 20:00N 29°19' W 094°48'0 0.0
2018-May-10 19:30N 29°19' W 094°48'0 0.0
2018-May-10 18:57N 29°19' W 094°48'0 0.0
2018-May-10 18:29N 29°19' W 094°48'0 0.0
2018-May-10 17:59N 29°19' W 094°48'0 0.0
2018-May-10 17:29N 29°19' W 094°48'0 0.0
2018-May-10 16:59N 29°19' W 094°48'0 0.0
2018-May-10 16:07N 29°19' W 094°48'0 0.0
2018-May-10 15:55N 29°19' W 094°48'0 0.0
2018-May-10 15:25N 29°19' W 094°48'0 0.0
2018-May-10 14:10N 29°19' W 094°48'0 0.0
2018-May-10 13:48N 29°19' W 094°48'0 0.0
2018-May-10 13:30N 29°19' W 094°48'0 0.0
2018-May-10 13:00N 29°19' W 094°48'0 0.0
2018-May-10 12:30N 29°19' W 094°48'1 2.1
2018-May-10 12:00N 29°19' W 094°47'5 9.9
2018-May-10 11:30N 29°20' W 094°41'713.9
2018-May-10 11:00N 29°17' W 094°34'612.4
2018-May-10 10:30N 29°13' W 094°29'510.6
2018-May-10 10:00N 29°09' W 094°25'510.7
2018-May-10 09:30N 29°04' W 094°25'510.5
2018-May-10 09:01N 28°59' W 094°26'4 8.6
2018-May-10 08:30N 28°54' W 094°26'4 8.8
2018-May-10 08:00N 28°50' W 094°24'611.4
2018-May-10 07:31N 28°45' W 094°24'816.4
2018-May-10 07:01N 28°36' W 094°24'816.5
2018-May-10 06:30N 28°28' W 094°24'816.7
2018-May-10 06:01N 28°20' W 094°24'816.6
2018-May-10 05:31N 28°11' W 094°25'916.5
2018-May-10 04:59N 28°03' W 094°25'816.5
2018-May-10 04:31N 27°55' W 094°25'816.6
2018-May-10 04:00N 27°47' W 094°25'815.9
2018-May-10 03:30N 27°39' W 094°21'  

Dump ship's entire track history